FW9995 Weather Reports


time (UTC)temp
F
wind
direction
speed
knots
gust
knots
rain 1hr
in
rain 24hr
in
rain mn
in
humidity
%
barometer
mb
20260506033531 66 11 2.6 7.8 0.00 0.00 0.00 73 1008.6
20260506033036 67 17 2.6 7.8 0.00 0.00 0.00 73 1008.5
20260506032531 67 243 3.5 7.8 0.00 0.00 0.00 73 1008.6
20260506032028 68 321 1.7 8.7 0.00 0.00 0.00 73 1008.4
20260506031543 68 349 2.6 8.7 0.00 0.00 0.00 73 1008.4
20260506031031 68 9 2.6 8.7 0.00 0.00 0.00 73 1008.1
20260506030530 68 336 2.6 11.3 0.00 0.00 0.00 73 1007.8
20260506030042 69 350 2.6 11.3 0.00 0.00 0.00 73 1008.1
20260506025530 69 319 3.5 11.3 0.00 0.00 0.00 72 1008.0
20260506025030 69 352 4.3 8.7 0.00 0.00 0.00 72 1007.7
20260506024557 69 0 3.5 9.6 0.00 0.00 0.00 72 1007.5
20260506024028 70 15 3.5 10.4 0.00 0.00 0.00 71 1007.4
20260506023531 70 338 3.5 10.4 0.00 0.00 0.00 71 1007.1
20260506023037 70 327 3.5 10.4 0.00 0.00 0.00 71 1007.0
20260506022530 71 333 2.6 8.7 0.00 0.00 0.00 71 1006.9
20260506022028 71 328 0.9 7.8 0.00 0.00 0.00 71 1006.9
20260506021536 72 331 3.5 7.8 0.00 0.00 0.00 70 1006.9
20260506021030 72 348 2.6 7.8 0.00 0.00 0.00 70 1006.7
20260506020527 72 302 1.7 6.1 0.00 0.00 0.00 69 1006.5
20260506020042 73 344 0.9 7.0 0.00 0.00 0.00 69 1006.1
20260506015528 73 33 0.9 7.0 0.00 0.00 0.00 69 1006.4
20260506015028 73 292 2.6 6.1 0.00 0.00 0.00 68 1006.2
20260506014540 73 342 0.9 7.8 0.00 0.00 0.00 68 1006.4
20260506014030 73 11 1.7 7.8 0.00 0.00 0.00 68 1006.3
20260506013529 73 344 2.6 7.8 0.00 0.00 0.00 67 1006.0
20260506013058 73 22 1.7 7.0 0.00 0.00 0.00 67 1006.2
20260506012531 73 355 1.7 7.0 0.00 0.00 0.00 66 1005.9
20260506012028 74 341 1.7 7.0 0.00 0.00 0.00 66 1006.1
20260506011539 74 260 1.7 7.0 0.00 0.00 0.00 66 1006.1
20260506011029 74 17 2.6 5.2 0.00 0.00 0.00 67 1006.0
20260506010528 74 360 1.7 4.3 0.00 0.00 0.00 66 1005.9
20260506010044 74 342 0.9 8.7 0.00 0.00 0.00 66 1005.8
20260506005530 75 321 1.7 8.7 0.00 0.00 0.00 66 1005.5
20260506005027 75 5 0.9 7.0 0.00 0.00 0.00 65 1005.1
20260506004538 75 295 1.7 8.7 0.00 0.00 0.00 64 1005.5
20260506004031 76 273 1.7 8.7 0.00 0.00 0.00 64 1005.5
20260506003529 76 309 3.5 8.7 0.00 0.00 0.00 64 1005.4
20260506003040 77 292 2.6 7.8 0.00 0.00 0.00 64 1005.4
20260506002528 77 22 1.7 7.8 0.00 0.00 0.00 63 1005.5
20260506002028 78 316 1.7 7.8 0.00 0.00 0.00 63 1005.5
20260506001541 78 327 3.5 7.8 0.00 0.00 0.00 62 1005.4
20260506001028 79 327 3.5 7.8 0.00 0.00 0.00 61 1005.6
20260506000527 80 14 1.7 7.8 0.00 0.00 0.00 61 1005.4
20260506000037 80 346 1.7 8.7 0.00 0.00 0.00 61 1005.2
20260505235530 80 333 2.6 10.4 0.00 0.00 0.00 60 1004.7
20260505235030 81 319 2.6 10.4 0.00 0.00 0.00 59 1004.7
20260505234547 82 302 4.3 10.4 0.00 0.00 0.00 58 1004.6
20260505234030 83 343 1.7 11.3 0.00 0.00 0.00 57 1004.6
20260505233531 83 231 2.6 11.3 0.00 0.00 0.00 56 1004.8
20260505233041 84 24 4.3 11.3 0.00 0.00 0.00 55 1004.7
20260505232527 85 279 2.6 7.8 0.00 0.00 0.00 53 1004.6
20260505232031 86 360 2.6 10.4 0.00 0.00 0.00 51 1004.4
20260505231542 86 327 3.5 11.3 0.00 0.00 0.00 50 1004.2
20260505231032 87 25 2.6 11.3 0.00 0.00 0.00 48 1004.2
20260505230528 87 327 4.3 11.3 0.00 0.00 0.00 47 1004.0
20260505230052 88 321 2.6 13.0 0.00 0.00 0.00 47 1004.0
20260505225528 89 332 4.3 13.0 0.00 0.00 0.00 47 1003.9
20260505225028 89 230 2.6 6.1 0.00 0.00 0.00 50 1003.5
20260505224539 89 159 0.9 7.0 0.00 0.00 0.00 51 1003.6
20260505224031 89 207 2.6 7.0 0.00 0.00 0.00 50 1003.7
20260505223530 89 213 1.7 7.0 0.00 0.00 0.00 51 1003.8
20260505223047 89 200 1.7 7.0 0.00 0.00 0.00 51 1003.5
20260505222531 90 273 0.9 7.0 0.00 0.00 0.00 51 1003.4
20260505222028 89 224 2.6 7.0 0.00 0.00 0.00 51 1003.3
20260505221538 89 167 1.7 7.8 0.00 0.00 0.00 52 1003.3
20260505221027 90 138 2.6 7.8 0.00 0.00 0.00 51 1003.4
20260505220530 90 180 1.7 7.8 0.00 0.00 0.00 52 1003.4
20260505220043 90 245 1.7 8.7 0.00 0.00 0.00 52 1003.4
20260505215528 90 181 2.6 8.7 0.00 0.00 0.00 52 1003.6
20260505215031 89 189 2.6 7.0 0.00 0.00 0.00 52 1003.6
20260505214537 89 138 2.6 9.6 0.00 0.00 0.00 53 1003.6
20260505214030 89 265 1.7 9.6 0.00 0.00 0.00 53 1003.6
20260505213530 89 213 3.5 9.6 0.00 0.00 0.00 53 1003.7
20260505213050 89 207 2.6 9.6 0.00 0.00 0.00 53 1003.8
20260505212533 89 0 2.6 13.0 0.00 0.00 0.00 54 1003.8
20260505212028 89 252 3.5 13.0 0.00 0.00 0.00 55 1003.8
20260505211542 89 240 4.3 13.0 0.00 0.00 0.00 54 1003.8
20260505211028 89 34 6.1 13.0 0.00 0.00 0.00 55 1003.9
20260505210527 89 194 2.6 12.2 0.00 0.00 0.00 56 1004.0
20260505210041 89 171 4.3 12.2 0.00 0.00 0.00 56 1003.8
20260505205528 88 135 3.5 11.3 0.00 0.00 0.00 58 1004.0
20260505205032 88 178 2.6 12.2 0.00 0.00 0.00 58 1004.1
20260505204540 89 219 5.2 14.8 0.00 0.00 0.00 56 1004.2
20260505204033 89 211 4.3 14.8 0.00 0.00 0.00 57 1004.2
20260505203533 89 209 4.3 13.9 0.00 0.00 0.00 56 1004.3
20260505203046 89 235 4.3 10.4 0.00 0.00 0.00 57 1004.4
20260505202529 89 240 3.5 10.4 0.00 0.00 0.00 58 1004.3
20260505202029 88 182 1.7 9.6 0.00 0.00 0.00 59 1004.4
20260505201544 88 208 4.3 11.3 0.00 0.00 0.00 59 1004.4
20260505201029 87 198 3.5 11.3 0.00 0.00 0.00 59 1004.6
20260505200532 87 182 4.3 11.3 0.00 0.00 0.00 59 1004.5
20260505200042 88 173 3.5 12.2 0.00 0.00 0.00 59 1004.6
20260505195531 87 261 2.6 13.9 0.00 0.00 0.00 59 1004.6
20260505195027 87 164 4.3 13.9 0.00 0.00 0.00 59 1004.6
20260505194538 87 230 2.6 10.4 0.00 0.00 0.00 61 1004.6
20260505194031 86 187 3.5 11.3 0.00 0.00 0.00 60 1004.6
20260505193527 86 188 3.5 12.2 0.00 0.00 0.00 60 1004.9
20260505193039 86 224 5.2 13.0 0.00 0.00 0.00 61 1004.7
20260505192529 85 177 4.3 13.0 0.00 0.00 0.00 62 1004.7
20260505192030 85 195 5.2 13.0 0.00 0.00 0.00 62 1004.6
20260505191537 85 202 3.5 12.2 0.00 0.00 0.00 63 1004.6
20260505191033 84 178 3.5 13.0 0.00 0.00 0.00 63 1004.7
20260505190532 84 178 4.3 14.8 0.00 0.00 0.00 64 1004.7
20260505190035 84 173 5.2 14.8 0.00 0.00 0.00 64 1004.7
20260505185533 83 199 4.3 13.0 0.00 0.00 0.00 66 1004.8
20260505185031 83 281 4.3 13.9 0.00 0.00 0.00 65 1004.8
20260505184541 83 188 4.3 13.9 0.00 0.00 0.00 65 1004.9
20260505184027 83 214 6.1 13.0 0.00 0.00 0.00 65 1005.0
20260505183527 83 168 4.3 13.0 0.00 0.00 0.00 65 1005.0
20260505183044 83 121 4.3 10.4 0.00 0.00 0.00 65 1004.9
20260505182531 83 261 5.2 14.8 0.00 0.00 0.00 66 1004.8
20260505182033 83 146 2.6 14.8 0.00 0.00 0.00 66 1005.0
20260505181540 83 221 5.2 13.0 0.00 0.00 0.00 66 1004.9
20260505181030 83 242 3.5 13.0 0.00 0.00 0.00 67 1005.0
20260505180531 83 151 5.2 12.2 0.00 0.00 0.00 66 1005.0
20260505180038 83 185 4.3 11.3 0.00 0.00 0.00 66 1005.0
20260505175531 82 204 6.1 12.2 0.00 0.00 0.00 66 1004.8
20260505175031 82 142 3.5 12.2 0.00 0.00 0.00 67 1004.9
20260505174548 82 208 4.3 11.3 0.00 0.00 0.00 67 1004.9
20260505174030 82 198 3.5 18.2 0.00 0.00 0.00 68 1004.9
20260505173531 81 201 7.0 18.2 0.00 0.00 0.00 68 1004.9
20260505173047 81 186 4.3 12.2 0.00 0.00 0.00 68 1005.0
20260505172530 80 196 5.2 13.9 0.00 0.00 0.00 69 1005.0
20260505172031 80 207 5.2 13.9 0.00 0.00 0.00 69 1005.1
20260505171540 80 218 5.2 13.9 0.00 0.00 0.00 70 1005.1
20260505171034 79 187 5.2 13.9 0.00 0.00 0.00 70 1005.1
20260505170531 79 202 6.1 16.5 0.00 0.00 0.00 70 1005.3
20260505170040 79 291 7.0 16.5 0.00 0.00 0.00 70 1005.2
20260505165531 79 182 7.0 15.6 0.00 0.00 0.00 69 1005.3
20260505165031 79 180 3.5 15.6 0.00 0.00 0.00 70 1005.1
20260505164556 79 217 5.2 17.4 0.00 0.00 0.00 70 1005.1
20260505164031 79 211 7.8 17.4 0.00 0.00 0.00 70 1005.0
20260505163528 79 180 6.1 15.6 0.00 0.00 0.00 69 1005.1
20260505163045 79 195 3.5 16.5 0.00 0.00 0.00 70 1005.1
20260505162530 79 5 6.1 16.5 0.00 0.00 0.00 70 1004.8
20260505162031 79 267 4.3 16.5 0.00 0.00 0.00 71 1005.0
20260505161542 79 155 6.1 19.1 0.00 0.00 0.00 71 1004.7
20260505161030 78 192 5.2 19.1 0.00 0.00 0.00 71 1005.0
20260505160528 78 196 5.2 17.4 0.00 0.00 0.00 71 1004.9
20260505153053 77 155 7.8 20.0 0.00 0.00 0.00 73 1004.8
20260505152531 77 204 6.1 17.4 0.00 0.00 0.00 73 1004.7
20260505152030 76 227 6.1 17.4 0.00 0.00 0.00 74 1004.7
20260505151548 76 181 7.8 18.2 0.00 0.00 0.00 75 1004.9
20260505151031 75 202 7.0 20.0 0.00 0.00 0.00 75 1005.0
20260505150531 75 180 7.0 20.0 0.00 0.00 0.00 75 1004.9
20260505140530 73 177 4.3 18.2 0.00 0.00 0.00 79 1005.0
20260505125030 71 193 7.0 16.5 0.00 0.00 0.00 81 1004.3
20260505124540 71 150 3.5 15.6 0.00 0.00 0.00 81 1004.2
20260505124029 71 180 5.2 15.6 0.00 0.00 0.00 81 1004.3
20260505123528 71 186 5.2 14.8 0.00 0.00 0.00 81 1004.3
20260505123038 71 164 4.3 14.8 0.00 0.00 0.00 81 1004.0
20260505122528 71 192 5.2 13.9 0.00 0.00 0.00 81 1003.8
20260505122028 71 196 4.3 14.8 0.00 0.00 0.00 81 1003.8
20260505121538 71 236 6.1 16.5 0.00 0.00 0.00 81 1003.9
20260505121029 71 219 6.1 16.5 0.00 0.00 0.00 81 1003.9
20260505120528 71 190 4.3 16.5 0.00 0.00 0.00 81 1003.8
20260505120042 71 180 6.1 16.5 0.00 0.00 0.00 81 1003.9
20260505115529 71 242 7.0 16.5 0.00 0.00 0.00 81 1003.8
20260505115033 71 169 5.2 12.2 0.00 0.00 0.00 81 1003.7
20260505114544 71 133 4.3 15.6 0.00 0.00 0.00 81 1003.6
20260505114030 71 193 4.3 15.6 0.00 0.00 0.00 81 1003.6
20260505113532 71 195 3.5 14.8 0.00 0.00 0.00 81 1003.7
20260505113037 71 175 4.3 17.4 0.00 0.00 0.00 81 1003.7
20260505112529 71 185 5.2 17.4 0.00 0.00 0.00 81 1003.5
20260505112028 71 177 6.1 14.8 0.00 0.00 0.00 81 1003.7
20260505111551 71 0 4.3 12.2 0.00 0.00 0.00 81 1003.7
20260505111029 71 209 5.2 12.2 0.00 0.00 0.00 81 1003.7
20260505110529 71 211 4.3 10.4 0.00 0.00 0.00 81 1003.5
20260505102030 71 219 3.5 13.9 0.00 0.00 0.00 81 1003.8
20260505101542 71 174 4.3 13.9 0.00 0.00 0.00 81 1003.7
20260505101030 71 209 4.3 12.2 0.00 0.00 0.00 81 1003.7
20260505100533 71 196 4.3 13.0 0.00 0.00 0.00 81 1003.8
20260505100050 71 197 5.2 13.0 0.00 0.00 0.00 81 1003.8
20260505095533 71 175 4.3 11.3 0.00 0.00 0.00 81 1003.6
20260505095030 71 194 4.3 13.0 0.00 0.00 0.00 81 1003.7
20260505094542 71 192 5.2 13.0 0.00 0.00 0.00 81 1003.9
20260505094029 71 242 5.2 13.0 0.00 0.00 0.00 81 1003.8
20260505093530 71 144 6.1 13.0 0.00 0.00 0.00 81 1004.0
20260505093042 71 165 5.2 16.5 0.00 0.00 0.00 81 1003.9
20260505092530 71 149 5.2 16.5 0.00 0.00 0.00 81 1003.9
20260505092031 71 200 6.1 16.5 0.00 0.00 0.00 81 1004.0
20260505091552 71 157 5.2 18.2 0.00 0.00 0.00 81 1003.9
20260505091031 71 148 4.3 18.2 0.00 0.00 0.00 81 1004.0
20260505090530 71 161 5.2 16.5 0.00 0.00 0.00 81 1004.2
20260505090052 71 207 4.3 16.5 0.00 0.00 0.00 81 1004.1
20260505085534 71 200 4.3 16.5 0.00 0.00 0.00 81 1004.2
20260505085030 71 184 5.2 16.5 0.00 0.00 0.00 81 1004.2
20260505084539 70 186 4.3 9.6 0.00 0.00 0.00 81 1004.2
20260505084030 70 167 3.5 13.9 0.00 0.00 0.00 81 1004.1
20260505083529 70 153 5.2 13.9 0.00 0.00 0.00 81 1004.2
20260505083044 70 220 3.5 11.3 0.00 0.00 0.00 81 1004.0
20260505082530 71 177 4.3 12.2 0.00 0.00 0.00 80 1004.0
20260505082032 71 233 4.3 12.2 0.00 0.00 0.00 80 1004.1
20260505081555 71 184 2.6 14.8 0.00 0.00 0.00 80 1004.3
20260505081031 71 196 6.1 14.8 0.00 0.00 0.00 80 1004.3
20260505080532 71 208 4.3 18.2 0.00 0.00 0.00 80 1004.3
20260505080047 71 144 4.3 19.1 0.00 0.00 0.00 79 1004.3
20260505075530 71 155 4.3 19.1 0.00 0.00 0.00 79 1004.4
20260505075029 71 180 3.5 12.2 0.00 0.00 0.00 79 1004.3
20260505074554 71 191 1.7 13.0 0.00 0.00 0.00 78 1004.5
20260505074031 71 198 6.1 13.0 0.00 0.00 0.00 79 1004.6
20260505073531 71 163 4.3 13.9 0.00 0.00 0.00 78 1004.6
20260505073040 72 188 3.5 13.9 0.00 0.00 0.00 78 1004.7
20260505072530 72 202 7.0 13.9 0.00 0.00 0.00 78 1004.8
20260505072028 72 197 5.2 13.9 0.00 0.00 0.00 78 1005.0
20260505071535 72 190 4.3 13.9 0.00 0.00 0.00 77 1005.1
20260505071031 72 200 5.2 13.0 0.00 0.00 0.00 77 1005.1
20260505070531 72 185 4.3 14.8 0.00 0.00 0.00 77 1005.2
20260505070046 72 190 4.3 14.8 0.00 0.00 0.00 77 1005.2
20260505065532 72 170 6.1 14.8 0.00 0.00 0.00 77 1005.1
20260505065030 72 207 5.2 11.3 0.00 0.00 0.00 77 1005.3
20260505064542 72 141 4.3 13.9 0.00 0.00 0.00 77 1005.4
20260505064029 72 189 5.2 13.9 0.00 0.00 0.00 77 1005.4
20260505063529 72 190 5.2 9.6 0.00 0.00 0.00 77 1005.5
20260505063043 72 195 4.3 13.0 0.00 0.00 0.00 76 1005.4
20260505062531 72 207 4.3 13.9 0.00 0.00 0.00 76 1005.4
20260505062030 72 150 3.5 13.9 0.00 0.00 0.00 76 1005.4
20260505061557 72 204 4.3 12.2 0.00 0.00 0.00 76 1005.2
20260505061029 72 217 3.5 13.0 0.00 0.00 0.00 76 1005.3
20260505060528 72 207 5.2 13.0 0.00 0.00 0.00 76 1005.4
20260505060051 72 123 4.3 13.0 0.00 0.00 0.00 76 1005.3
20260505055530 72 230 5.2 13.0 0.00 0.00 0.00 76 1005.3
20260505055033 72 164 4.3 13.0 0.00 0.00 0.00 75 1005.3
20260505054555 72 124 2.6 11.3 0.00 0.00 0.00 75 1005.5
20260505054034 72 211 4.3 14.8 0.00 0.00 0.00 75 1005.6
20260505053531 72 188 6.1 14.8 0.00 0.00 0.00 75 1005.5
20260505053044 72 144 4.3 11.3 0.00 0.00 0.00 75 1005.7
20260505052529 72 165 3.5 12.2 0.00 0.00 0.00 75 1005.8
20260505052030 72 144 5.2 12.2 0.00 0.00 0.00 75 1005.8
20260505051536 72 179 4.3 13.0 0.00 0.00 0.00 74 1005.7
20260505051030 73 209 5.2 13.0 0.00 0.00 0.00 74 1005.7
20260505050530 73 179 2.6 10.4 0.00 0.00 0.00 74 1005.8
20260505041539 73 197 5.2 10.4 0.00 0.00 0.00 72 1005.9
20260505041031 73 200 3.5 10.4 0.00 0.00 0.00 72 1006.2
20260505040530 74 195 3.5 10.4 0.00 0.00 0.00 72 1006.1
20260505040041 74 182 4.3 10.4 0.00 0.00 0.00 72 1006.2
20260505035530 74 191 4.3 12.2 0.00 0.00 0.00 71 1006.2
20260505035029 74 174 3.5 12.2 0.00 0.00 0.00 71 1005.9
20260505034538 74 199 4.3 10.4 0.00 0.00 0.00 71 1006.0
20260505034031 74 191 3.5 10.4 0.00 0.00 0.00 71 1005.9